Regional Weather Roundup
Issued by NWS

Home | Current Version | Previous Version | Text Only | Print | Product List | Glossary Off
Versions: 1 2 3 4 5 6 7 8 9 10 11 12 13 14 15 16 17 18 19 20 21 22 23 24 25 26 27

000
ASUS45 KBOI 251710
RWRID

IDAHO REGIONAL WEATHER ROUNDUP
NATIONAL WEATHER SERVICE BOISE ID
1100 AM MDT FRI MAY 25 2018

NOTE: "FAIR" INDICATES FEW OR NO CLOUDS BELOW 12000 FEET
WITH NO SIGNIFICANT WEATHER AND/OR OBSTRUCTIONS TO VISIBILITY

IDZ012-014-251800-
SOUTHWEST IDAHO


CITY           SKY/WX    TMP DP  RH WIND       PRES   REMARKS
BOISE          SUNNY     73  53  49 NW9       29.89F
CALDWELL       SUNNY     72  57  59 W7        29.89F
MOUNTAIN HOME  SUNNY     75  53  46 W6        29.89F
$$

IDZ016-017-251800-
SOUTHCENTRAL IDAHO


CITY           SKY/WX    TMP DP  RH WIND       PRES   REMARKS
BURLEY         SUNNY     75  53  46 E10       29.93F
JEROME         SUNNY     74  52  46 E8        29.94F
TWIN FALLS     SUNNY     70  55  59 E8        29.94F
$$

IDZ019>023-251800-
SOUTHEAST IDAHO


CITY           SKY/WX    TMP DP  RH WIND       PRES   REMARKS
IDAHO FALLS    SUNNY     70  55  59 N7        30.03F
POCATELLO      SUNNY     72  51  47 NE9       29.99F
REXBURG        SUNNY     68  52  56 N7        30.04F
$$

IDZ006-010-011-018-031-032-251800-
CENTRAL IDAHO MOUNTAINS


CITY           SKY/WX    TMP DP  RH WIND       PRES   REMARKS
MCCALL         PTSUNNY   65  46  50 CALM      29.98F
HAILEY         MOSUNNY   70  46  43 NW7       30.03F
STANLEY          N/A     61  44  53 N5        30.09F
SALMON         SUNNY     62  50  64 SW3       30.02F
CHALLIS        SUNNY     64  50  60 CALM      30.05F
$$

IDZ002-004-006-007-026-251800-
NORTHERN IDAHO


CITY           SKY/WX    TMP DP  RH WIND       PRES   REMARKS
LEWISTON       MOSUNNY   70  59  68 W5        29.90F
LOWELL           N/A     66  55  67 CALM      29.91F
COEUR D`ALENE  SUNNY     73  54  51 SE5       29.93S
MULLAN PASS    MOSUNNY   58  47  66 CALM      30.08S
$$




USA.gov is the U.S. government's official web portal to all federal, state and local government web resources and services.